Year,Month,Day,Hour,Minute,Value (Times are PST for temperature in C)
2015,06,12,00,00,12.60
2015,06,12,00,01,12.60
2015,06,12,00,02,12.60
2015,06,12,00,03,12.60
2015,06,12,00,04,12.60
2015,06,12,00,05,12.60
2015,06,12,00,06,12.60
2015,06,12,00,07,12.60
2015,06,12,00,08,12.60
2015,06,12,00,09,12.60
2015,06,12,00,10,12.50
2015,06,12,00,11,12.50
2015,06,12,00,12,12.50
2015,06,12,00,13,12.50
2015,06,12,00,14,12.50
2015,06,12,00,15,12.40
2015,06,12,00,16,12.40
2015,06,12,00,17,12.40
2015,06,12,00,18,12.40
2015,06,12,00,19,12.40
2015,06,12,00,20,12.30
2015,06,12,00,21,12.30
2015,06,12,00,22,12.30
2015,06,12,00,23,12.30
2015,06,12,00,24,12.30
2015,06,12,00,25,12.30
2015,06,12,00,26,12.30
2015,06,12,00,27,12.30
2015,06,12,00,28,12.30
2015,06,12,00,29,12.30
2015,06,12,00,30,12.30
2015,06,12,00,31,12.30
2015,06,12,00,32,12.30
2015,06,12,00,33,12.30
2015,06,12,00,34,12.30
2015,06,12,00,35,12.30
2015,06,12,00,36,12.30
2015,06,12,00,37,12.30
2015,06,12,00,38,12.20
2015,06,12,00,39,12.20
2015,06,12,00,40,12.20
2015,06,12,00,41,12.20
2015,06,12,00,42,12.20
2015,06,12,00,43,12.20
2015,06,12,00,44,12.20
2015,06,12,00,45,12.20
2015,06,12,00,46,12.20
2015,06,12,00,47,12.10
2015,06,12,00,48,12.20
2015,06,12,00,49,12.20
2015,06,12,00,50,12.20
2015,06,12,00,51,12.20
2015,06,12,00,52,12.20
2015,06,12,00,53,12.20
2015,06,12,00,54,12.20
2015,06,12,00,55,12.20
2015,06,12,00,56,12.20
2015,06,12,00,57,12.20
2015,06,12,00,58,12.10
2015,06,12,00,59,12.10
2015,06,12,01,00,12.20
2015,06,12,01,01,12.20
2015,06,12,01,02,12.20
2015,06,12,01,03,12.20
2015,06,12,01,04,12.20
2015,06,12,01,05,12.20
2015,06,12,01,06,12.20
2015,06,12,01,07,12.20
2015,06,12,01,08,12.20
2015,06,12,01,09,12.20
2015,06,12,01,10,12.20
2015,06,12,01,11,12.20
2015,06,12,01,12,12.20
2015,06,12,01,13,12.20
2015,06,12,01,14,12.20
2015,06,12,01,15,12.20
2015,06,12,01,16,12.20
2015,06,12,01,17,12.20
2015,06,12,01,18,12.20
2015,06,12,01,19,12.20
2015,06,12,01,20,12.20
2015,06,12,01,21,12.10
2015,06,12,01,22,12.10
2015,06,12,01,23,12.10
2015,06,12,01,24,12.10
2015,06,12,01,25,12.10
2015,06,12,01,26,12.10
2015,06,12,01,27,12.00
2015,06,12,01,28,12.00
2015,06,12,01,29,12.00
2015,06,12,01,30,12.00
2015,06,12,01,31,12.00
2015,06,12,01,32,12.00
2015,06,12,01,33,12.00
2015,06,12,01,34,12.00
2015,06,12,01,35,12.00
2015,06,12,01,36,11.90
2015,06,12,01,37,11.90
2015,06,12,01,38,11.90
2015,06,12,01,39,11.90
2015,06,12,01,40,11.90
2015,06,12,01,41,11.90
2015,06,12,01,42,11.80
2015,06,12,01,43,11.80
2015,06,12,01,44,11.80
2015,06,12,01,45,11.80
2015,06,12,01,46,11.80
2015,06,12,01,47,11.80
2015,06,12,01,48,11.80
2015,06,12,01,49,11.80
2015,06,12,01,50,11.80
2015,06,12,01,51,11.80
2015,06,12,01,52,11.80
2015,06,12,01,53,11.80
2015,06,12,01,54,11.80
2015,06,12,01,55,11.80
2015,06,12,01,56,11.80
2015,06,12,01,57,11.80
2015,06,12,01,58,11.80
2015,06,12,01,59,11.80
2015,06,12,02,00,11.80
2015,06,12,02,01,11.80
2015,06,12,02,02,11.80
2015,06,12,02,03,11.80
2015,06,12,02,04,11.80
2015,06,12,02,05,11.80
2015,06,12,02,06,11.80
2015,06,12,02,07,11.80
2015,06,12,02,08,11.80
2015,06,12,02,09,11.80
2015,06,12,02,10,11.80
2015,06,12,02,11,11.80
2015,06,12,02,12,11.80
2015,06,12,02,13,11.80
2015,06,12,02,14,11.80
2015,06,12,02,15,11.80
2015,06,12,02,16,11.80
2015,06,12,02,17,11.80
2015,06,12,02,18,11.80
2015,06,12,02,19,11.80
2015,06,12,02,20,11.70
2015,06,12,02,21,11.70
2015,06,12,02,22,11.70
2015,06,12,02,23,11.70
2015,06,12,02,24,11.70
2015,06,12,02,25,11.70
2015,06,12,02,26,11.70
2015,06,12,02,27,11.70
2015,06,12,02,28,11.70
2015,06,12,02,29,11.60
2015,06,12,02,30,11.60
2015,06,12,02,31,11.60
2015,06,12,02,32,11.60
2015,06,12,02,33,11.60
2015,06,12,02,34,11.60
2015,06,12,02,35,11.60
2015,06,12,02,36,11.60
2015,06,12,02,37,11.60
2015,06,12,02,38,11.60
2015,06,12,02,39,11.60
2015,06,12,02,40,11.60
2015,06,12,02,41,11.60
2015,06,12,02,42,11.60
2015,06,12,02,43,11.60
2015,06,12,02,44,11.60
2015,06,12,02,45,11.60
2015,06,12,02,46,11.60
2015,06,12,02,47,11.60
2015,06,12,02,48,11.60
2015,06,12,02,49,11.60
2015,06,12,02,50,11.60
2015,06,12,02,51,11.60
2015,06,12,02,52,11.50
2015,06,12,02,53,11.50
2015,06,12,02,54,11.50
2015,06,12,02,55,11.50
2015,06,12,02,56,11.50
2015,06,12,02,57,11.50
2015,06,12,02,58,11.50
2015,06,12,02,59,11.50
2015,06,12,03,00,11.50
2015,06,12,03,01,11.50
2015,06,12,03,02,11.50
2015,06,12,03,03,11.50
2015,06,12,03,04,11.50
2015,06,12,03,05,11.50
2015,06,12,03,06,11.50
2015,06,12,03,07,11.50
2015,06,12,03,08,11.50
2015,06,12,03,09,11.50
2015,06,12,03,10,11.50
2015,06,12,03,11,11.50
2015,06,12,03,12,11.50
2015,06,12,03,13,11.50
2015,06,12,03,14,11.50
2015,06,12,03,15,11.50
2015,06,12,03,16,11.50
2015,06,12,03,17,11.50
2015,06,12,03,18,11.50
2015,06,12,03,19,11.50
2015,06,12,03,20,11.50
2015,06,12,03,21,11.50
2015,06,12,03,22,11.40
2015,06,12,03,23,11.40
2015,06,12,03,24,11.40
2015,06,12,03,25,11.50
2015,06,12,03,26,11.40
2015,06,12,03,27,11.40
2015,06,12,03,28,11.50
2015,06,12,03,29,11.50
2015,06,12,03,30,11.50
2015,06,12,03,31,11.60
2015,06,12,03,32,11.60
2015,06,12,03,33,11.60
2015,06,12,03,34,11.60
2015,06,12,03,35,11.70
2015,06,12,03,36,11.70
2015,06,12,03,37,11.70
2015,06,12,03,38,11.70
2015,06,12,03,39,11.60
2015,06,12,03,40,11.60
2015,06,12,03,41,11.60
2015,06,12,03,42,11.60
2015,06,12,03,43,11.60
2015,06,12,03,44,11.60
2015,06,12,03,45,11.70
2015,06,12,03,46,11.70
2015,06,12,03,47,11.80
2015,06,12,03,48,11.80
2015,06,12,03,49,11.80
2015,06,12,03,50,11.70
2015,06,12,03,51,11.70
2015,06,12,03,52,11.70
2015,06,12,03,53,11.70
2015,06,12,03,54,11.70
2015,06,12,03,55,11.60
2015,06,12,03,56,11.60
2015,06,12,03,57,11.60
2015,06,12,03,58,11.60
2015,06,12,03,59,11.60
2015,06,12,04,00,11.60
2015,06,12,04,01,11.60
2015,06,12,04,02,11.60
2015,06,12,05,02,11.40
2015,06,12,05,03,11.40
2015,06,12,05,04,11.40
2015,06,12,05,05,11.40
2015,06,12,05,06,11.40
2015,06,12,05,07,11.40
2015,06,12,05,08,11.40
2015,06,12,05,09,11.40
2015,06,12,05,10,11.40
2015,06,12,05,11,11.40
2015,06,12,05,12,11.40
2015,06,12,05,13,11.40
2015,06,12,05,14,11.40
2015,06,12,05,15,11.40
2015,06,12,05,16,11.40
2015,06,12,05,17,11.40
2015,06,12,05,18,11.40
2015,06,12,05,19,11.40
2015,06,12,05,20,11.40
2015,06,12,05,21,11.40
2015,06,12,05,22,11.40
2015,06,12,05,23,11.40
2015,06,12,05,24,11.40
2015,06,12,05,25,11.40
2015,06,12,05,26,11.40
2015,06,12,05,27,11.40
2015,06,12,05,28,11.40
2015,06,12,05,29,11.40
2015,06,12,05,30,11.40
2015,06,12,05,31,11.40
2015,06,12,05,32,11.40
2015,06,12,05,33,11.40
2015,06,12,05,34,11.40
2015,06,12,05,35,11.40
2015,06,12,05,36,11.40
2015,06,12,05,37,11.40
2015,06,12,05,38,11.40
2015,06,12,05,39,11.40
2015,06,12,05,40,11.40
2015,06,12,05,41,11.40
2015,06,12,05,42,11.40
2015,06,12,05,43,11.40
2015,06,12,05,44,11.40
2015,06,12,05,45,11.40
2015,06,12,05,46,11.40
2015,06,12,05,47,11.40
2015,06,12,05,48,11.40
2015,06,12,05,49,11.40
2015,06,12,05,50,11.40
2015,06,12,05,51,11.40
2015,06,12,05,52,11.40
2015,06,12,05,53,11.50
2015,06,12,05,54,11.50
2015,06,12,05,55,11.50
2015,06,12,05,56,11.60
2015,06,12,05,57,11.60
2015,06,12,05,58,11.60
2015,06,12,05,59,11.60
2015,06,12,06,00,11.60
2015,06,12,06,01,11.60
2015,06,12,06,02,11.70
2015,06,12,06,03,11.70
2015,06,12,06,04,11.70
2015,06,12,06,05,11.70
2015,06,12,06,06,11.70
2015,06,12,06,07,11.70
2015,06,12,06,08,11.70
2015,06,12,06,09,11.80
2015,06,12,06,10,11.80
2015,06,12,06,11,11.80
2015,06,12,06,12,11.80
2015,06,12,06,13,11.80
2015,06,12,06,14,11.80
2015,06,12,06,15,11.80
2015,06,12,06,16,11.90
2015,06,12,06,17,11.90
2015,06,12,06,18,11.90
2015,06,12,06,19,11.90
2015,06,12,06,20,11.90
2015,06,12,06,21,11.90
2015,06,12,06,22,11.90
2015,06,12,06,23,11.90
2015,06,12,06,24,11.90
2015,06,12,06,25,11.90
2015,06,12,06,26,11.90
2015,06,12,06,27,11.90
2015,06,12,06,28,11.90
2015,06,12,06,29,11.90
2015,06,12,06,30,12.00
2015,06,12,06,31,12.00
2015,06,12,06,32,12.00
2015,06,12,06,33,12.10
2015,06,12,06,34,12.10
2015,06,12,06,35,12.10
2015,06,12,06,36,12.10
2015,06,12,06,37,12.10
2015,06,12,06,38,12.10
2015,06,12,06,39,12.20
2015,06,12,06,40,12.20
2015,06,12,06,41,12.20
2015,06,12,06,42,12.20
2015,06,12,06,43,12.20
2015,06,12,06,44,12.20
2015,06,12,06,45,12.20
2015,06,12,06,46,12.20
2015,06,12,06,47,12.20
2015,06,12,06,48,12.20
2015,06,12,06,49,12.30
2015,06,12,06,50,12.30
2015,06,12,06,51,12.30
2015,06,12,06,52,12.30
2015,06,12,06,53,12.30
2015,06,12,06,54,12.40
2015,06,12,06,55,12.40
2015,06,12,06,56,12.40
2015,06,12,06,57,12.40
2015,06,12,06,58,12.40
2015,06,12,06,59,12.50
2015,06,12,07,00,12.50
2015,06,12,07,01,12.50
2015,06,12,07,02,12.50
2015,06,12,07,03,12.50
2015,06,12,07,04,12.60
2015,06,12,07,05,12.60
2015,06,12,07,06,12.60
2015,06,12,07,07,12.60
2015,06,12,07,08,12.60
2015,06,12,07,09,12.60
2015,06,12,07,10,12.70
2015,06,12,07,11,12.70
2015,06,12,07,12,12.80
2015,06,12,07,13,12.90
2015,06,12,07,14,12.90
2015,06,12,07,15,13.00
2015,06,12,07,16,13.00
2015,06,12,07,17,13.10
2015,06,12,07,18,13.10
2015,06,12,07,19,13.20
2015,06,12,07,20,13.20
2015,06,12,07,21,13.30
2015,06,12,07,22,13.20
2015,06,12,07,23,13.20
2015,06,12,07,24,13.20
2015,06,12,07,25,13.20
2015,06,12,07,26,13.20
2015,06,12,07,27,13.20
2015,06,12,07,28,13.20
2015,06,12,07,29,13.20
2015,06,12,07,30,13.20
2015,06,12,07,31,13.20
2015,06,12,07,32,13.20
2015,06,12,07,33,13.30
2015,06,12,07,34,13.30
2015,06,12,07,35,13.40
2015,06,12,07,36,13.40
2015,06,12,07,37,13.40
2015,06,12,07,38,13.40
2015,06,12,07,39,13.30
2015,06,12,07,40,13.30
2015,06,12,07,41,13.30
2015,06,12,07,42,13.40
2015,06,12,07,43,13.40
2015,06,12,07,44,13.40
2015,06,12,07,45,13.40
2015,06,12,07,46,13.50
2015,06,12,07,47,13.50
2015,06,12,07,48,13.60
2015,06,12,07,49,13.70
2015,06,12,07,50,13.70
2015,06,12,07,51,13.70
2015,06,12,07,52,13.70
2015,06,12,07,53,13.70
2015,06,12,07,54,13.70
2015,06,12,07,55,13.70
2015,06,12,07,56,13.80
2015,06,12,07,57,13.80
2015,06,12,07,58,13.80
2015,06,12,07,59,13.80
2015,06,12,08,00,13.80
2015,06,12,08,01,13.80
2015,06,12,08,02,13.80
2015,06,12,08,03,13.70
2015,06,12,08,04,13.70
2015,06,12,08,05,13.70
2015,06,12,08,06,13.70
2015,06,12,08,07,13.70
2015,06,12,08,08,13.80
2015,06,12,08,09,13.80
2015,06,12,08,10,13.90
2015,06,12,08,11,13.90
2015,06,12,08,12,14.00
2015,06,12,08,13,14.00
2015,06,12,08,14,14.00
2015,06,12,08,15,14.00
2015,06,12,08,16,14.00
2015,06,12,08,17,14.00
2015,06,12,08,18,14.00
2015,06,12,08,19,14.00
2015,06,12,08,20,14.00
2015,06,12,08,21,14.00
2015,06,12,08,22,14.10
2015,06,12,08,23,14.10
2015,06,12,08,24,14.10
2015,06,12,08,25,14.20
2015,06,12,08,26,14.20
2015,06,12,08,27,14.20
2015,06,12,08,28,14.30
2015,06,12,08,29,14.30
2015,06,12,08,30,14.30
2015,06,12,08,31,14.30
2015,06,12,08,32,14.30
2015,06,12,08,33,14.40
2015,06,12,08,34,14.40
2015,06,12,08,35,14.40
2015,06,12,08,36,14.50
2015,06,12,08,37,14.50
2015,06,12,08,38,14.60
2015,06,12,08,39,14.60
2015,06,12,08,40,14.60
2015,06,12,08,41,14.50
2015,06,12,08,42,14.60
2015,06,12,08,43,14.60
2015,06,12,08,44,14.70
2015,06,12,08,45,14.80
2015,06,12,08,46,14.90
2015,06,12,08,47,15.00
2015,06,12,08,48,15.10
2015,06,12,08,49,15.10
2015,06,12,08,50,15.10
2015,06,12,08,51,15.10
2015,06,12,08,52,15.00
2015,06,12,08,53,15.00
2015,06,12,08,54,15.00
2015,06,12,08,55,15.10
2015,06,12,08,56,15.10
2015,06,12,08,57,15.10
2015,06,12,08,58,15.00
2015,06,12,08,59,15.00
2015,06,12,09,00,15.00
2015,06,12,09,01,15.10
2015,06,12,09,02,15.10
2015,06,12,09,03,15.10
2015,06,12,09,04,15.10
2015,06,12,09,05,15.10
2015,06,12,09,06,15.20
2015,06,12,09,07,15.30
2015,06,12,09,08,15.30
2015,06,12,09,09,15.30
2015,06,12,09,10,15.30
2015,06,12,09,11,15.30
2015,06,12,09,12,15.30
2015,06,12,09,13,15.30
2015,06,12,09,14,15.40
2015,06,12,09,15,15.40
2015,06,12,09,16,15.40
2015,06,12,09,17,15.40
2015,06,12,09,18,15.40
2015,06,12,09,19,15.50
2015,06,12,09,20,15.60
2015,06,12,09,21,15.50
2015,06,12,09,22,15.50
2015,06,12,09,23,15.50
2015,06,12,09,24,15.40
2015,06,12,09,25,15.40
2015,06,12,09,26,15.30
2015,06,12,09,27,15.30
2015,06,12,09,28,15.30
2015,06,12,09,29,15.30
2015,06,12,09,30,15.30
2015,06,12,09,31,15.30
2015,06,12,09,32,15.30
2015,06,12,09,33,15.30
2015,06,12,09,34,15.30
2015,06,12,09,35,15.30
2015,06,12,09,36,15.40
2015,06,12,09,37,15.50
2015,06,12,09,38,15.50
2015,06,12,09,39,15.50
2015,06,12,09,40,15.40
2015,06,12,09,41,15.40
2015,06,12,09,42,15.50
2015,06,12,09,43,15.60
2015,06,12,09,44,15.60
2015,06,12,09,45,15.60
2015,06,12,09,46,15.60
2015,06,12,09,47,15.50
2015,06,12,09,48,15.60
2015,06,12,09,49,15.60
2015,06,12,09,50,15.60
2015,06,12,09,51,15.60
2015,06,12,09,52,15.50
2015,06,12,09,53,15.60
2015,06,12,09,54,15.60
2015,06,12,09,55,15.70
2015,06,12,09,56,15.70
2015,06,12,09,57,15.70
2015,06,12,09,58,15.70
2015,06,12,09,59,15.60
2015,06,12,10,00,15.50
2015,06,12,10,01,15.50
2015,06,12,10,02,15.50
2015,06,12,10,03,15.50
2015,06,12,10,04,15.50
2015,06,12,10,05,15.50
2015,06,12,10,06,15.60
2015,06,12,10,07,15.60
2015,06,12,10,08,15.60
2015,06,12,10,09,15.70
2015,06,12,10,10,15.80
2015,06,12,10,11,15.90
2015,06,12,10,12,16.00
2015,06,12,10,13,16.00
2015,06,12,10,14,16.00
2015,06,12,10,15,16.10
2015,06,12,10,16,16.10
2015,06,12,10,17,16.10
2015,06,12,10,18,16.10
2015,06,12,10,19,16.10
2015,06,12,10,20,16.10
2015,06,12,10,21,16.10
2015,06,12,10,22,16.10
2015,06,12,10,23,16.20
2015,06,12,10,24,16.30
2015,06,12,10,25,16.40
2015,06,12,10,26,16.40
2015,06,12,10,27,16.50
2015,06,12,10,28,16.60
2015,06,12,10,29,16.70
2015,06,12,10,30,16.80
2015,06,12,10,31,16.90
2015,06,12,10,32,16.90
2015,06,12,10,33,16.90
2015,06,12,10,34,17.00
2015,06,12,10,35,16.90
2015,06,12,10,36,17.00
2015,06,12,10,37,17.00
2015,06,12,10,38,17.00
2015,06,12,10,39,16.90
2015,06,12,10,40,16.70
2015,06,12,10,41,16.70
2015,06,12,10,42,16.80
2015,06,12,10,43,16.90
2015,06,12,10,44,16.90
2015,06,12,10,45,17.00
2015,06,12,10,46,17.10
2015,06,12,10,47,17.10
2015,06,12,10,48,17.00
2015,06,12,10,49,16.80
2015,06,12,10,50,16.80
2015,06,12,10,51,16.90
2015,06,12,10,52,16.90
2015,06,12,10,53,16.90
2015,06,12,10,54,17.00
2015,06,12,10,55,17.10
2015,06,12,10,56,17.10
2015,06,12,10,57,17.10
2015,06,12,10,58,17.10
2015,06,12,10,59,17.20
2015,06,12,11,00,17.20
2015,06,12,11,01,17.30
2015,06,12,11,02,17.30
2015,06,12,11,03,17.30
2015,06,12,11,04,17.30
2015,06,12,11,05,17.30
2015,06,12,11,06,17.30
2015,06,12,11,07,17.40
2015,06,12,11,08,17.40
2015,06,12,11,09,17.30
2015,06,12,11,10,17.30
2015,06,12,11,11,17.30
2015,06,12,11,12,17.30
2015,06,12,11,13,17.30
2015,06,12,11,14,17.30
2015,06,12,11,15,17.40
2015,06,12,11,16,17.30
2015,06,12,11,17,17.20
2015,06,12,11,18,17.10
2015,06,12,11,19,17.00
2015,06,12,11,20,17.00
2015,06,12,11,21,17.10
2015,06,12,11,22,17.00
2015,06,12,11,23,16.90
2015,06,12,11,24,16.90
2015,06,12,11,25,16.90
2015,06,12,11,26,16.80
2015,06,12,11,27,16.80
2015,06,12,11,28,16.80
2015,06,12,11,29,16.80
2015,06,12,11,30,16.90
2015,06,12,11,31,16.90
2015,06,12,11,32,16.90
2015,06,12,11,33,17.00
2015,06,12,11,34,17.00
2015,06,12,11,35,17.00
2015,06,12,11,36,17.00
2015,06,12,11,37,17.00
2015,06,12,11,38,17.00
2015,06,12,11,39,16.90
2015,06,12,11,40,16.90
2015,06,12,11,41,16.90
2015,06,12,11,42,17.00
2015,06,12,11,43,17.00
2015,06,12,11,44,17.00
2015,06,12,11,45,17.00
2015,06,12,11,46,16.90
2015,06,12,11,47,16.80
2015,06,12,11,48,16.90
2015,06,12,11,49,16.90
2015,06,12,11,50,16.90
2015,06,12,11,51,17.00
2015,06,12,11,52,17.10
2015,06,12,11,53,17.20
2015,06,12,11,54,17.30
2015,06,12,11,55,17.30
2015,06,12,11,56,17.30
2015,06,12,11,57,17.30
2015,06,12,11,58,17.30
2015,06,12,11,59,17.30
2015,06,12,12,00,17.30
2015,06,12,12,01,17.20
2015,06,12,12,02,17.20
2015,06,12,12,03,17.20
2015,06,12,12,04,17.30
2015,06,12,12,05,17.40
2015,06,12,12,06,17.40
2015,06,12,12,07,17.40
2015,06,12,12,08,17.60
2015,06,12,12,09,17.70
2015,06,12,12,10,17.80
2015,06,12,12,11,17.90
2015,06,12,12,12,18.00
2015,06,12,12,13,18.00
2015,06,12,12,14,17.90
2015,06,12,12,15,18.00
2015,06,12,12,16,18.00
2015,06,12,12,17,18.10
2015,06,12,12,18,18.20
2015,06,12,12,19,18.10
2015,06,12,12,20,18.00
2015,06,12,12,21,18.00
2015,06,12,12,22,18.00
2015,06,12,12,23,17.90
2015,06,12,12,24,17.70
2015,06,12,12,25,17.60
2015,06,12,12,26,17.60
2015,06,12,12,27,17.50
2015,06,12,12,28,17.40
2015,06,12,12,29,17.40
2015,06,12,12,30,17.50
2015,06,12,12,31,17.60
2015,06,12,12,32,17.80
2015,06,12,12,33,17.90
2015,06,12,12,34,17.90
2015,06,12,12,35,17.80
2015,06,12,12,36,17.80
2015,06,12,12,37,17.70
2015,06,12,12,38,17.80
2015,06,12,12,39,18.00
2015,06,12,12,40,18.10
2015,06,12,12,41,18.20
2015,06,12,12,42,18.40
2015,06,12,12,43,18.50
2015,06,12,12,44,18.40
2015,06,12,12,45,18.40
2015,06,12,12,46,18.40
2015,06,12,12,47,18.40
2015,06,12,12,48,18.50
2015,06,12,12,49,18.50
2015,06,12,12,50,18.50
2015,06,12,12,51,18.40
2015,06,12,12,52,18.30
2015,06,12,12,53,18.30
2015,06,12,12,54,18.30
2015,06,12,12,55,18.30
2015,06,12,12,56,18.50
2015,06,12,12,57,18.60
2015,06,12,12,58,18.70
2015,06,12,12,59,18.80
2015,06,12,13,00,18.90
2015,06,12,13,01,18.90
2015,06,12,13,02,18.80
2015,06,12,13,03,18.80
2015,06,12,13,04,18.70
2015,06,12,13,05,18.70
2015,06,12,13,06,18.70
2015,06,12,13,07,18.80
2015,06,12,13,08,18.80
2015,06,12,13,09,18.90
2015,06,12,13,10,18.90
2015,06,12,13,11,18.80
2015,06,12,13,12,18.80
2015,06,12,13,13,18.80
2015,06,12,13,14,18.90
2015,06,12,13,15,19.00
2015,06,12,13,16,19.10
2015,06,12,13,17,19.10
2015,06,12,13,18,19.10
2015,06,12,13,19,19.10
2015,06,12,13,20,19.10
2015,06,12,13,21,19.10
2015,06,12,13,22,19.10
2015,06,12,13,23,19.10
2015,06,12,13,24,19.20
2015,06,12,13,25,19.20
2015,06,12,13,26,19.30
2015,06,12,13,27,19.40
2015,06,12,13,28,19.50
2015,06,12,13,29,19.50
2015,06,12,13,30,19.40
2015,06,12,13,31,19.30
2015,06,12,13,32,19.30
2015,06,12,13,33,19.20
2015,06,12,13,34,19.10
2015,06,12,13,35,19.10
2015,06,12,13,36,19.10
2015,06,12,13,37,19.10
2015,06,12,13,38,19.10
2015,06,12,13,39,19.10
2015,06,12,13,40,19.20
2015,06,12,13,41,19.20
2015,06,12,13,42,19.30
2015,06,12,13,43,19.30
2015,06,12,13,44,19.20
2015,06,12,13,45,19.10
2015,06,12,13,46,19.10
2015,06,12,13,47,19.10
2015,06,12,13,48,19.10
2015,06,12,13,49,19.10
2015,06,12,13,50,19.00
2015,06,12,13,51,19.00
2015,06,12,13,52,19.00
2015,06,12,13,53,19.00
2015,06,12,13,54,19.00
2015,06,12,13,55,19.10
2015,06,12,13,56,19.10
2015,06,12,13,57,19.00
2015,06,12,13,58,18.90
2015,06,12,13,59,18.90
2015,06,12,14,00,18.80
2015,06,12,14,01,18.80
2015,06,12,14,02,18.80
2015,06,12,14,03,18.80
2015,06,12,14,04,18.80
2015,06,12,14,05,18.80
2015,06,12,14,06,18.80
2015,06,12,14,07,18.80
2015,06,12,14,08,18.70
2015,06,12,14,09,18.70
2015,06,12,14,10,18.80
2015,06,12,14,11,18.80
2015,06,12,14,12,18.90
2015,06,12,14,13,19.00
2015,06,12,14,14,19.10
2015,06,12,14,15,19.20
2015,06,12,14,16,19.30
2015,06,12,14,17,19.30
2015,06,12,14,18,19.30
2015,06,12,14,19,19.20
2015,06,12,14,20,19.20
2015,06,12,14,21,19.30
2015,06,12,14,22,19.40
2015,06,12,14,23,19.40
2015,06,12,14,24,19.40
2015,06,12,14,25,19.40
2015,06,12,14,26,19.30
2015,06,12,14,27,19.40
2015,06,12,14,28,19.40
2015,06,12,14,29,19.50
2015,06,12,14,30,19.50
2015,06,12,14,31,19.40
2015,06,12,14,32,19.40
2015,06,12,14,33,19.30
2015,06,12,14,34,19.30
2015,06,12,14,35,19.30
2015,06,12,14,36,19.30
2015,06,12,14,37,19.20
2015,06,12,14,38,19.20
2015,06,12,14,39,19.20
2015,06,12,14,40,19.30
2015,06,12,14,41,19.30
2015,06,12,14,42,19.20
2015,06,12,14,43,19.20
2015,06,12,14,44,19.10
2015,06,12,14,45,19.00
2015,06,12,14,46,18.90
2015,06,12,14,47,19.00
2015,06,12,14,48,19.00
2015,06,12,14,49,19.00
2015,06,12,14,50,19.10
2015,06,12,14,51,19.10
2015,06,12,14,52,19.10
2015,06,12,14,53,19.00
2015,06,12,14,54,18.90
2015,06,12,14,55,18.90
2015,06,12,14,56,18.90
2015,06,12,14,57,19.00
2015,06,12,14,58,19.10
2015,06,12,14,59,19.20
2015,06,12,15,00,19.20
2015,06,12,15,01,19.10
2015,06,12,15,02,19.20
2015,06,12,15,03,19.20
2015,06,12,15,04,19.30
2015,06,12,15,05,19.30
2015,06,12,15,06,19.30
2015,06,12,15,07,19.20
2015,06,12,15,08,19.20
2015,06,12,15,09,19.30
2015,06,12,15,10,19.40
2015,06,12,15,11,19.40
2015,06,12,15,12,19.50
2015,06,12,15,13,19.60
2015,06,12,15,14,19.60
2015,06,12,15,15,19.60
2015,06,12,15,16,19.50
2015,06,12,15,17,19.50
2015,06,12,15,18,19.40
2015,06,12,15,19,19.40
2015,06,12,15,20,19.30
2015,06,12,15,21,19.30
2015,06,12,15,22,19.40
2015,06,12,15,23,19.40
2015,06,12,15,24,19.40
2015,06,12,15,25,19.40
2015,06,12,15,26,19.50
2015,06,12,15,27,19.50
2015,06,12,15,28,19.50
2015,06,12,15,29,19.60
2015,06,12,15,30,19.70
2015,06,12,15,31,19.80
2015,06,12,15,32,19.80
2015,06,12,15,33,19.70
2015,06,12,15,34,19.60
2015,06,12,15,35,19.50
2015,06,12,15,36,19.50
2015,06,12,15,37,19.60
2015,06,12,15,38,19.70
2015,06,12,15,39,19.70
2015,06,12,15,40,19.80
2015,06,12,15,41,19.80
2015,06,12,15,42,19.80
2015,06,12,15,43,19.70
2015,06,12,15,44,19.60
2015,06,12,15,45,19.40
2015,06,12,15,46,19.30
2015,06,12,15,47,19.20
2015,06,12,15,48,19.30
2015,06,12,15,49,19.30
2015,06,12,15,50,19.30
2015,06,12,15,51,19.40
2015,06,12,15,52,19.30
2015,06,12,15,53,19.20
2015,06,12,15,54,19.10
2015,06,12,15,55,19.10
2015,06,12,15,56,19.10
2015,06,12,15,57,19.10
2015,06,12,15,58,19.10
2015,06,12,15,59,19.10
2015,06,12,16,00,19.20
2015,06,12,16,01,19.30
2015,06,12,16,02,19.30
2015,06,12,16,03,19.30
2015,06,12,16,04,19.20
2015,06,12,16,05,19.10
2015,06,12,16,06,18.90
2015,06,12,16,07,18.80
2015,06,12,16,08,18.80
2015,06,12,16,09,18.90
2015,06,12,16,10,18.90
2015,06,12,16,11,19.00
2015,06,12,16,12,19.20
2015,06,12,16,13,19.20
2015,06,12,16,14,19.20
2015,06,12,16,15,19.20
2015,06,12,16,16,19.20
2015,06,12,16,17,19.20
2015,06,12,16,18,19.20
2015,06,12,16,19,19.20
2015,06,12,16,20,19.20
2015,06,12,16,21,19.20
2015,06,12,16,22,19.20
2015,06,12,16,23,19.20
2015,06,12,16,24,19.20
2015,06,12,16,25,19.20
2015,06,12,16,26,19.20
2015,06,12,16,27,19.30
2015,06,12,16,28,19.30
2015,06,12,16,29,19.30
2015,06,12,16,30,19.30
2015,06,12,16,31,19.30
2015,06,12,16,32,19.30
2015,06,12,16,33,19.20
2015,06,12,16,34,19.20
2015,06,12,16,35,19.10
2015,06,12,16,36,19.10
2015,06,12,16,37,19.10
2015,06,12,16,38,19.00
2015,06,12,16,39,19.00
2015,06,12,16,40,18.90
2015,06,12,16,41,18.90
2015,06,12,16,42,18.90
2015,06,12,16,43,19.00
2015,06,12,16,44,18.90
2015,06,12,16,45,18.90
2015,06,12,16,46,18.90
2015,06,12,16,47,19.00
2015,06,12,16,48,19.00
2015,06,12,16,49,19.00
2015,06,12,16,50,18.90
2015,06,12,16,51,19.00
2015,06,12,16,52,19.00
2015,06,12,16,53,19.00
2015,06,12,16,54,18.90
2015,06,12,16,55,18.80
2015,06,12,16,56,18.90
2015,06,12,16,57,18.90
2015,06,12,16,58,18.90
2015,06,12,16,59,18.90
2015,06,12,17,00,18.90
2015,06,12,17,01,18.90
2015,06,12,17,02,18.90
2015,06,12,17,03,18.90
2015,06,12,17,04,18.90
2015,06,12,17,05,18.80
2015,06,12,17,06,18.80
2015,06,12,17,07,18.90
2015,06,12,17,08,19.00
2015,06,12,17,09,19.10
2015,06,12,17,10,19.10
2015,06,12,17,11,19.20
2015,06,12,17,12,19.20
2015,06,12,17,13,19.20
2015,06,12,17,14,19.20
2015,06,12,17,15,19.10
2015,06,12,17,16,19.00
2015,06,12,17,17,18.90
2015,06,12,17,18,18.90
2015,06,12,17,19,18.90
2015,06,12,17,20,19.00
2015,06,12,17,21,18.90
2015,06,12,17,22,18.90
2015,06,12,17,23,18.90
2015,06,12,17,24,18.90
2015,06,12,17,25,18.90
2015,06,12,17,26,19.00
2015,06,12,17,27,19.00
2015,06,12,17,28,19.10
2015,06,12,17,29,19.10
2015,06,12,17,30,19.10
2015,06,12,17,31,19.00
2015,06,12,17,32,18.90
2015,06,12,17,33,18.90
2015,06,12,17,34,18.80
2015,06,12,17,35,18.80
2015,06,12,17,36,18.70
2015,06,12,17,37,18.80
2015,06,12,17,38,18.80
2015,06,12,17,39,18.80
2015,06,12,17,40,18.80
2015,06,12,17,41,18.90
2015,06,12,17,42,18.90
2015,06,12,17,43,19.00
2015,06,12,17,44,18.90
2015,06,12,17,45,18.90
2015,06,12,17,46,18.80
2015,06,12,17,47,18.80
2015,06,12,17,48,18.80
2015,06,12,17,49,18.90
2015,06,12,17,50,18.90
2015,06,12,17,51,18.90
2015,06,12,17,52,19.00
2015,06,12,17,53,19.00
2015,06,12,17,54,19.00
2015,06,12,17,55,18.90
2015,06,12,17,56,18.90
2015,06,12,17,57,18.80
2015,06,12,17,58,18.70
2015,06,12,17,59,18.70
2015,06,12,18,00,18.60
2015,06,12,18,01,18.60
2015,06,12,18,02,18.60
2015,06,12,18,03,18.60
2015,06,12,18,04,18.60
2015,06,12,18,05,18.60
2015,06,12,18,06,18.60
2015,06,12,18,07,18.60
2015,06,12,18,08,18.60
2015,06,12,18,09,18.60
2015,06,12,18,10,18.60
2015,06,12,18,11,18.60
2015,06,12,18,12,18.60
2015,06,12,18,13,18.70
2015,06,12,18,14,18.70
2015,06,12,18,15,18.60
2015,06,12,18,16,18.60
2015,06,12,18,17,18.60
2015,06,12,18,18,18.50